Home > Weather > Allschwil > Past weeks

Flag for Switzerland Past Weather in Allschwil, Basel-Land, Switzerland — Yesterday and Last 2 Weeks

Now
79 °F

Partly sunny.


Feels Like: 80 °F
Forecast: 65 / 89 °F
Wind: 3 mph from West

Location: Bale-Mulhouse

Current Time: Aug 27, 2016 at 8:57:23 PM

Latest Report: Aug 27, 2016 at 8:00 PM


Visibility: 25 mi

Pressure: 29.96 "Hg

Humidity: 60%

Dew Point: 64 °F

Location of AllschwilLocation

Past Weather in Allschwil — Graph

°F

Allschwil Temperature Yesterday

Maximum temperature yesterday: 94 °F (at 5:00 PM)
Minimum temperature yesterday: 63 °F (at 2:00 AM)
Average temperature yesterday: 77 °F

High & Low Weather Summary for the Past Weeks

 TemperatureHumidityPressure
High95 °F (Aug 27, 5:00 PM)98% (Aug 18, 2:00 AM)30.38 "Hg (Aug 18, 2:00 AM)
Low52 °F (Aug 23, 6:00 AM)20% (Aug 27, 6:00 PM)29.79 "Hg (Aug 17, 6:00 PM)
Average69 °F73%30.07 "Hg
* Reported Aug 12 7:00 PM — Aug 27 7:00 PM, Allschwil, Weather by CustomWeather, © 2016

Note: Actual official high and low records may vary slightly from our data, if they occured in-between our weather recording intervals... More about our weather records

Advertising

Allschwil Weather History for the Previous 24 Hours

Scroll right to see more
 ConditionsComfort  
Time TempWeatherWind HumidityBarometerVisibility
7:00 PM
Sat, Aug 27
84 °FScattered clouds.3 mph52%29.95 "Hg25 mi
6:00 PM94 °FPassing clouds.3 mph20%29.94 "Hg25 mi
5:00 PM95 °FPassing clouds.2 mph21%29.95 "Hg25 mi
4:00 PM95 °FPassing clouds.3 mph24%29.96 "Hg25 mi
3:00 PM93 °FPassing clouds.3 mph34%29.98 "Hg25 mi
2:00 PM91 °FPassing clouds.2 mph41%30.00 "Hg25 mi
1:00 PM89 °FPassing clouds.5 mph45%30.01 "Hg31 mi
12:00 PM87 °FPassing clouds.3 mph50%30.03 "Hg31 mi
11:00 AM83 °FWarm.3 mph56%30.05 "Hg28 mi
10:00 AM78 °FSunny.3 mph63%30.06 "Hg31 mi
9:00 AM73 °FSunny.5 mph75%30.06 "Hg31 mi
8:00 AM67 °FSunny.2 mph91%30.07 "Hg31 mi
7:00 AM61 °FSunny.3 mph94%30.07 "Hg37 mi
6:00 AM64 °FClear.2 mph88%30.05 "Hg37 mi
5:00 AM63 °FClear.2 mph92%30.06 "Hg37 mi
4:00 AM63 °FMild.1 mph90%30.07 "Hg22 mi
3:00 AM64 °FMild.1 mph91%30.06 "Hg25 mi
2:00 AM64 °FMild.No wind91%30.06 "Hg28 mi
1:00 AM65 °FMild.1 mph90%30.06 "Hg31 mi
12:00 AM67 °FClear.1 mph88%30.05 "Hg37 mi
11:00 PM
Fri, Aug 26
68 °FClear.3 mph85%30.05 "Hg37 mi
10:00 PM71 °FClear.3 mph82%30.03 "Hg37 mi
9:00 PM74 °FPassing clouds.2 mph81%30.01 "Hg37 mi
8:00 PM83 °FPassing clouds.3 mph60%29.98 "Hg37 mi
Weather by CustomWeather, © 2016

See weather overviewHow to use our weather pages